Regional Weather Roundup
Issued by NWS

Home | Current Version | Previous Version | Graphics & Text | Print | Product List | Glossary Off
Versions: 1 2 3 4 5 6 7 8 9 10 11 12 13 14 15 16 17 18 19 20 21 22 23 24 25 26 27 28 29 30 31 32 33 34 35 36 37 38 39 40 41 42 43 44 45 46 47 48 49 50

000
ASUS43 KFSD 251602
RWRSD

WEATHER ROUNDUP FOR SOUTH DAKOTA
NATIONAL WEATHER SERVICE SIOUX FALLS SD
1100 AM CDT SAT APR 25 2015

NOTE: "FAIR" INDICATES FEW OR NO CLOUDS BELOW 12,000 FEET WITH NO
SIGNIFICANT WEATHER AND/OR OBSTRUCTIONS TO VISIBILITY.


SDZ001>005-009-010-012>017-251700-
NORTHWEST AND NORTH CENTRAL SOUTH DAKOTA

CITY           SKY/WX    TMP DP  RH WIND       PRES   REMARKS
BUFFALO          N/A     46  43  89 SE13      29.65R
FAITH            N/A     45  43  93 E9        29.74S
MOBRIDGE       CLOUDY    47  43  86 E14       29.76R
$$

SDZ012>016-024>037-041>051-057-063-072>074-251700-
SOUTHWEST AND SOUTH CENTRAL SOUTH DAKOTA

CITY           SKY/WX    TMP DP  RH WIND       PRES   REMARKS
RAPID CTY ARPT FOG       46  45  96 SE7       29.71R VSB 1/2
PIERRE         CLOUDY    46  45  96 E14       29.75R FOG
CUSTER         SUNNY     53  37  54 SE3       29.73R
ELLSWORTH AFB  FOG       46  46 100 E6        29.71  VSB 1
PHILIP         CLOUDY    48  46  93 E9        29.73R
PINE RIDGE     FOG       46  44  93 CALM      29.72R VSB 1/2
WINNER         CLOUDY    52  48  86 E15       29.73R FOG
$$

SDZ004>011-016>023-039-040-251700-
NORTHEAST SOUTH DAKOTA

CITY           SKY/WX    TMP DP  RH WIND       PRES   REMARKS
ABERDEEN       CLOUDY    46  42  86 E10       29.82R
WATERTOWN      CLOUDY    43  40  89 E9        29.79R FOG
BROOKINGS      CLOUDY    45  41  87 E10G16    29.79R
SISSETON         N/A     43  43 100 SE13      29.84R
$$

SDZ017-020-022-023-036>040-048>070-251700-
SOUTHEAST SOUTH DAKOTA

CITY           SKY/WX    TMP DP  RH WIND       PRES   REMARKS
SIOUX FALLS    CLOUDY    50  42  74 E14       29.73S
HURON          CLOUDY    48  43  82 E9        29.78R
MITCHELL       LGT RAIN  48  45  89 E9        29.77R FOG
YANKTON        PTSUNNY   48  39  71 NE13      29.71S
$$

ABBREVIATIONS USED IN REMARKS
   TC - TEMPERATURE IN CELSIUS
  WCI - WIND CHILL INDEX
   HX - HEAT INDEX
  VSB - VISIBILITY




USA.gov is the U.S. government's official web portal to all federal, state and local government web resources and services.